Satellite-Ground Cal/Val Site Overpasses Predictions

Prediction of Satellite NPP Overpassing Cal/Val Site: Antarctic Dome C

Ground Cal/Val Site Location: Latitude: -75.10, Longitude: 123.35; Satellite-Ground Site NADIR distance within 100 km.

Table of predicted overpasses for the next 14.0 days since TLE Epoch: 10/13/2012
Interval Starting Time Ending Time Minimum Distance Time Minimum Distance (km)
1 10/14/2012 14:52:38 10/14/2012 14:53:06 10/14/2012 14:52:52 19.08
2 10/15/2012 14:33:58 10/15/2012 14:34:11 10/15/2012 14:34:04 87.72
3 10/16/2012 07:35:30 10/16/2012 07:35:57 10/16/2012 07:35:43 34.97
4 10/17/2012 07:16:46 10/17/2012 07:17:05 10/17/2012 07:16:55 75.04
5 10/19/2012 14:59:03 10/19/2012 14:59:27 10/19/2012 14:59:15 56.81
6 10/20/2012 14:40:14 10/20/2012 14:40:39 10/20/2012 14:40:27 52.20
7 10/21/2012 07:41:56 10/21/2012 07:42:17 10/21/2012 07:42:07 70.92
8 10/22/2012 07:23:06 10/22/2012 07:23:33 10/22/2012 07:23:19 36.96
9 10/24/2012 15:05:35 10/24/2012 15:05:43 10/24/2012 15:05:39 95.48
10 10/25/2012 14:46:37 10/25/2012 14:47:06 10/25/2012 14:4
